| time (UTC) | temp F | wind direction | speed knots | gust knots | rain 1hr in | rain 24hr in | rain mn in | humidity % | barometer mb |
| 20260905081605 | 72 | 0 | 0.0 | 2.6 | 0.00 | 0.00 | 0.00 | 62 | 1026.3 |
| 20260905080113 | 69 | 0 | 0.0 | 0.0 | 0.00 | 0.00 | 0.00 | 67 | 1026.4 |
| 20260905074605 | 65 | 0 | 0.0 | 0.0 | 0.00 | 0.00 | 0.00 | 70 | 1026.3 |
| 20260905073104 | 61 | 0 | 0.0 | 0.0 | 0.00 | 0.00 | 0.00 | 76 | 1026.4 |
| 20260905071605 | 58 | 0 | 0.0 | 0.0 | 0.00 | 0.00 | 0.00 | 82 | 1026.4 |
| 20260905070116 | 56 | 0 | 0.0 | 0.0 | 0.00 | 0.00 | 0.00 | 84 | 1026.3 |
| 20260905064605 | 54 | 0 | 0.0 | 0.0 | 0.00 | 0.00 | 0.00 | 86 | 1026.2 |
| 20260905063106 | 53 | 0 | 0.0 | 0.0 | 0.00 | 0.00 | 0.00 | 87 | 1026.1 |
| 20260905061618 | 52 | 0 | 0.0 | 0.0 | 0.00 | 0.00 | 0.00 | 87 | 1026.0 |
| 20260905054607 | 50 | 0 | 0.0 | 0.0 | 0.00 | 0.00 | 0.00 | 88 | 1025.9 |
| 20260905053114 | 50 | 0 | 0.0 | 0.0 | 0.00 | 0.00 | 0.00 | 87 | 1025.6 |
| 20260905051605 | 50 | 0 | 0.0 | 0.0 | 0.00 | 0.00 | 0.00 | 87 | 1025.5 |
| 20260905050108 | 51 | 0 | 0.0 | 0.0 | 0.00 | 0.00 | 0.00 | 86 | 1025.4 |
| 20260905044609 | 51 | 0 | 0.0 | 0.0 | 0.00 | 0.00 | 0.00 | 86 | 1025.2 |
| 20260905043109 | 51 | 0 | 0.0 | 0.0 | 0.00 | 0.00 | 0.00 | 85 | 1025.1 |
| 20260905041627 | 51 | 0 | 0.0 | 0.0 | 0.00 | 0.00 | 0.00 | 85 | 1024.9 |
| 20260905040110 | 51 | 0 | 0.0 | 0.0 | 0.00 | 0.00 | 0.00 | 85 | 1024.9 |
| 20260905034606 | 51 | 0 | 0.0 | 0.0 | 0.00 | 0.00 | 0.00 | 84 | 1024.8 |
| 20260905033107 | 51 | 0 | 0.0 | 0.0 | 0.00 | 0.00 | 0.00 | 84 | 1024.9 |
| 20260905031605 | 52 | 0 | 0.0 | 0.0 | 0.00 | 0.00 | 0.00 | 83 | 1025.0 |
| 20260905030108 | 52 | 0 | 0.0 | 0.0 | 0.00 | 0.00 | 0.00 | 83 | 1025.1 |
| 20260905024641 | 52 | 0 | 0.0 | 0.0 | 0.00 | 0.00 | 0.00 | 82 | 1024.9 |
| 20260905023111 | 52 | 0 | 0.0 | 0.0 | 0.00 | 0.00 | 0.00 | 82 | 1024.9 |
| 20260905021605 | 53 | 0 | 0.0 | 0.9 | 0.00 | 0.00 | 0.00 | 81 | 1024.7 |
| 20260905020106 | 53 | 0 | 0.0 | 0.0 | 0.00 | 0.00 | 0.00 | 81 | 1024.8 |
| 20260905014607 | 53 | 0 | 0.0 | 0.0 | 0.00 | 0.00 | 0.00 | 80 | 1024.7 |
| 20260905013117 | 53 | 0 | 0.0 | 0.0 | 0.00 | 0.00 | 0.00 | 80 | 1024.7 |
| 20260905011609 | 54 | 0 | 0.0 | 0.0 | 0.00 | 0.00 | 0.00 | 80 | 1024.5 |
| 20260905010108 | 54 | 0 | 0.0 | 0.0 | 0.00 | 0.00 | 0.00 | 79 | 1024.6 |
| 20260905004604 | 54 | 0 | 0.0 | 0.0 | 0.00 | 0.00 | 0.00 | 79 | 1024.7 |
| 20260905003107 | 55 | 0 | 0.0 | 0.0 | 0.00 | 0.00 | 0.00 | 78 | 1024.6 |
| 20260905001607 | 55 | 0 | 0.0 | 0.0 | 0.00 | 0.00 | 0.00 | 76 | 1024.6 |
| 20260904234606 | 56 | 0 | 0.0 | 0.0 | 0.00 | 0.00 | 0.00 | 74 | 1024.6 |
| 20260904233107 | 56 | 0 | 0.0 | 0.0 | 0.00 | 0.00 | 0.00 | 74 | 1024.7 |
| 20260904231607 | 57 | 0 | 0.0 | 0.0 | 0.00 | 0.00 | 0.00 | 73 | 1024.8 |
| 20260904230107 | 57 | 0 | 0.0 | 0.0 | 0.00 | 0.00 | 0.00 | 72 | 1024.8 |
| 20260904224605 | 58 | 0 | 0.0 | 0.0 | 0.00 | 0.00 | 0.00 | 71 | 1024.8 |
| 20260904223112 | 59 | 0 | 0.0 | 0.0 | 0.00 | 0.00 | 0.00 | 70 | 1024.9 |
| 20260904221610 | 59 | 0 | 0.0 | 0.0 | 0.00 | 0.00 | 0.00 | 69 | 1024.8 |
| 20260904220109 | 60 | 0 | 0.0 | 0.0 | 0.00 | 0.00 | 0.00 | 67 | 1024.7 |
| 20260904214609 | 60 | 0 | 0.0 | 0.0 | 0.00 | 0.00 | 0.00 | 66 | 1024.8 |
| 20260904213111 | 61 | 0 | 0.0 | 0.0 | 0.00 | 0.00 | 0.00 | 64 | 1024.8 |
| 20260904211619 | 62 | 0 | 0.0 | 0.0 | 0.00 | 0.00 | 0.00 | 63 | 1024.7 |
| 20260904210107 | 63 | 0 | 0.0 | 0.0 | 0.00 | 0.00 | 0.00 | 62 | 1024.7 |
| 20260904204604 | 63 | 0 | 0.0 | 0.0 | 0.00 | 0.00 | 0.00 | 61 | 1024.5 |
| 20260904203101 | 64 | 0 | 0.0 | 0.0 | 0.00 | 0.00 | 0.00 | 58 | 1024.4 |
| 20260904201606 | 65 | 0 | 0.0 | 0.0 | 0.00 | 0.00 | 0.00 | 57 | 1024.4 |
| 20260904200116 | 67 | 0 | 0.0 | 0.0 | 0.00 | 0.00 | 0.00 | 56 | 1024.3 |
| 20260904194606 | 68 | 0 | 0.0 | 0.0 | 0.00 | 0.00 | 0.00 | 52 | 1024.3 |
| 20260904193107 | 70 | 0 | 0.0 | 0.0 | 0.00 | 0.00 | 0.00 | 50 | 1024.2 |
| 20260904191607 | 71 | 0 | 0.0 | 0.0 | 0.00 | 0.00 | 0.00 | 47 | 1023.8 |
| 20260904190107 | 73 | 0 | 0.0 | 0.0 | 0.00 | 0.00 | 0.00 | 45 | 1023.8 |
| 20260904184610 | 75 | 0 | 0.0 | 0.0 | 0.00 | 0.00 | 0.00 | 43 | 1023.6 |
| 20260904183110 | 76 | 0 | 0.0 | 0.0 | 0.00 | 0.00 | 0.00 | 41 | 1023.4 |
| 20260904181607 | 77 | 0 | 0.0 | 0.0 | 0.00 | 0.00 | 0.00 | 38 | 1023.2 |
| 20260904180112 | 78 | 0 | 0.0 | 0.0 | 0.00 | 0.00 | 0.00 | 37 | 1023.4 |
| 20260904174605 | 79 | 0 | 0.0 | 1.7 | 0.00 | 0.00 | 0.00 | 36 | 1023.3 |
| 20260904173105 | 81 | 0 | 0.9 | 2.6 | 0.00 | 0.00 | 0.00 | 33 | 1023.3 |
| 20260904171605 | 82 | 197 | 0.9 | 5.2 | 0.00 | 0.00 | 0.00 | 31 | 1023.2 |
| 20260904170107 | 84 | 281 | 1.7 | 6.1 | 0.00 | 0.00 | 0.00 | 28 | 1023.2 |
| 20260904164613 | 83 | 176 | 1.7 | 6.1 | 0.00 | 0.00 | 0.00 | 30 | 1023.1 |
| 20260904163109 | 85 | 184 | 1.7 | 7.8 | 0.00 | 0.00 | 0.00 | 29 | 1023.1 |
| 20260904161604 | 85 | 117 | 0.9 | 6.1 | 0.00 | 0.00 | 0.00 | 28 | 1023.0 |
| 20260904160108 | 86 | 132 | 0.9 | 7.8 | 0.00 | 0.00 | 0.00 | 25 | 1023.1 |
| 20260904154606 | 86 | 253 | 1.7 | 9.6 | 0.00 | 0.00 | 0.00 | 24 | 1023.2 |
| 20260904153110 | 88 | 183 | 0.9 | 9.6 | 0.00 | 0.00 | 0.00 | 24 | 1023.2 |
| 20260904151606 | 88 | 228 | 0.9 | 6.1 | 0.00 | 0.00 | 0.00 | 24 | 1023.2 |
| 20260904150101 | 89 | 190 | 2.6 | 7.0 | 0.00 | 0.00 | 0.00 | 22 | 1023.4 |
| 20260904144604 | 89 | 293 | 0.9 | 6.1 | 0.00 | 0.00 | 0.00 | 22 | 1023.5 |
| 20260904143106 | 89 | 119 | 2.6 | 7.0 | 0.00 | 0.00 | 0.00 | 22 | 1023.4 |
| 20260904141625 | 89 | 241 | 3.5 | 9.6 | 0.00 | 0.00 | 0.00 | 22 | 1023.4 |
| 20260904140106 | 88 | 345 | 1.7 | 8.7 | 0.00 | 0.00 | 0.00 | 25 | 1023.6 |
| 20260904134605 | 89 | 165 | 2.6 | 10.4 | 0.00 | 0.00 | 0.00 | 21 | 1023.7 |
| 20260904133107 | 88 | 148 | 1.7 | 4.3 | 0.00 | 0.00 | 0.00 | 23 | 1023.6 |
| 20260904131639 | 88 | 212 | 0.9 | 4.3 | 0.00 | 0.00 | 0.00 | 21 | 1023.7 |
| 20260904124605 | 89 | 50 | 0.9 | 3.5 | 0.00 | 0.00 | 0.00 | 25 | 1023.7 |
| 20260904123110 | 89 | 137 | 1.7 | 7.8 | 0.00 | 0.00 | 0.00 | 24 | 1023.8 |
| 20260904121608 | 88 | 261 | 2.6 | 7.8 | 0.00 | 0.00 | 0.00 | 25 | 1023.7 |
| 20260904120107 | 89 | 177 | 1.7 | 9.6 | 0.00 | 0.00 | 0.00 | 22 | 1023.7 |
| 20260904114606 | 88 | 349 | 2.6 | 7.8 | 0.00 | 0.00 | 0.00 | 23 | 1023.6 |
| 20260904113110 | 89 | 289 | 3.5 | 8.7 | 0.00 | 0.00 | 0.00 | 24 | 1023.6 |
| 20260904111610 | 88 | 131 | 0.9 | 7.8 | 0.00 | 0.00 | 0.00 | 23 | 1023.6 |
| 20260904110107 | 88 | 288 | 0.9 | 7.8 | 0.00 | 0.00 | 0.00 | 24 | 1023.6 |
| 20260904104611 | 88 | 117 | 1.7 | 6.1 | 0.00 | 0.00 | 0.00 | 24 | 1023.5 |
| 20260904103108 | 88 | 156 | 2.6 | 7.0 | 0.00 | 0.00 | 0.00 | 23 | 1023.4 |
| 20260904101611 | 87 | 215 | 0.9 | 6.1 | 0.00 | 0.00 | 0.00 | 32 | 1023.5 |
| 20260904100111 | 86 | 255 | 1.7 | 6.1 | 0.00 | 0.00 | 0.00 | 30 | 1023.7 |
| 20260904094607 | 85 | 284 | 1.7 | 4.3 | 0.00 | 0.00 | 0.00 | 34 | 1023.8 |
| 20260904093107 | 85 | 0 | 1.7 | 4.3 | 0.00 | 0.00 | 0.00 | 35 | 1023.9 |
| 20260904091604 | 84 | 138 | 0.0 | 3.5 | 0.00 | 0.00 | 0.00 | 41 | 1023.9 |
| 20260904090106 | 81 | 0 | 0.0 | 0.0 | 0.00 | 0.00 | 0.00 | 47 | 1023.8 |
| 20260904084608 | 79 | 0 | 0.0 | 0.0 | 0.00 | 0.00 | 0.00 | 50 | 1023.7 |
| 20260904083106 | 76 | 0 | 0.0 | 0.0 | 0.00 | 0.00 | 0.00 | 56 | 1023.8 |